• En España
  • Lista de países
  • Para 7 días
  • Temperatura del agua
  • Mapa Satelital
  • El tiempo en el mapa
  • Informadores
  • user-avatar
    Iniciar sesión

    Tiempo cada hora Klyuchevaya

    Hoy, 24 Septiembre, Lunes

    Tiempo Temperatura Precipitaciones Viento Presión Humedad
    00:00 +7°C° 0 mm 3 mps 740 mmHg 91%
    01:00 +7°C° 0 mm 3 mps 740 mmHg 93%
    02:00 +6°C° 0 mm 2 mps 740 mmHg 96%
    03:00 +6°C° 0 mm 2 mps 740 mmHg 97%
    04:00 +6°C° 0 mm 2 mps 740 mmHg 97%
    05:00 +5°C° 0 mm 2 mps 740 mmHg 97%
    06:00 +6°C° 0 mm 2 mps 740 mmHg 94%
    07:00 +7°C° 0 mm 3 mps 740 mmHg 90%
    08:00 +8°C° 0 mm 3 mps 740 mmHg 87%
    09:00 +10°C° 0 mm 3 mps 740 mmHg 80%
    10:00 +11°C° 0 mm 3 mps 739 mmHg 73%
    11:00 +13°C° 0 mm 3 mps 739 mmHg 66%
    12:00 +12°C° 0.5 mm 3 mps 739 mmHg 72%
    13:00 +11°C° 0.5 mm 3 mps 738 mmHg 78%
    14:00 +10°C° 0.5 mm 3 mps 738 mmHg 84%
    15:00 +10°C° 1 mm 3 mps 737 mmHg 87%
    16:00 +9°C° 1 mm 3 mps 737 mmHg 90%
    17:00 +9°C° 1 mm 3 mps 736 mmHg 93%
    18:00 +8°C° 1.2 mm 3 mps 735 mmHg 93%
    19:00 +7°C° 1.2 mm 4 mps 734 mmHg 93%
    20:00 +7°C° 1.2 mm 4 mps 733 mmHg 93%
    21:00 +6°C° 2.3 mm 4 mps 732 mmHg 93%
    22:00 +6°C° 2.3 mm 4 mps 731 mmHg 94%
    23:00 +6°C° 2.3 mm 4 mps 730 mmHg 94%

    Mañana, 25 Septiembre, Martes

    Tiempo Temperatura Precipitaciones Viento Presión Humedad
    00:00 +6°C° 2.1 mm 4 mps 730 mmHg 94%
    01:00 +6°C° 2.1 mm 4 mps 730 mmHg 95%
    02:00 +6°C° 2.1 mm 4 mps 729 mmHg 95%
    03:00 +6°C° 1.3 mm 4 mps 729 mmHg 94%
    04:00 +6°C° 1.3 mm 4 mps 729 mmHg 94%
    05:00 +6°C° 1.3 mm 5 mps 729 mmHg 94%
    06:00 +6°C° 0.7 mm 5 mps 730 mmHg 93%
    07:00 +5°C° 0.7 mm 6 mps 731 mmHg 91%
    08:00 +5°C° 0.7 mm 6 mps 731 mmHg 90%
    09:00 +5°C° 0.6 mm 7 mps 732 mmHg 90%
    10:00 +5°C° 0.6 mm 7 mps 733 mmHg 89%
    11:00 +5°C° 0.6 mm 7 mps 734 mmHg 88%
    12:00 +5°C° 0.5 mm 7 mps 734 mmHg 87%
    13:00 +5°C° 0.5 mm 7 mps 735 mmHg 86%
    14:00 +5°C° 0.5 mm 7 mps 736 mmHg 86%
    15:00 +5°C° 0.4 mm 7 mps 737 mmHg 85%
    16:00 +5°C° 0.4 mm 7 mps 738 mmHg 84%
    17:00 +5°C° 0.4 mm 7 mps 739 mmHg 83%
    18:00 +4°C° 0.1 mm 7 mps 740 mmHg 82%
    19:00 +4°C° 0.1 mm 7 mps 741 mmHg 81%
    20:00 +3°C° 0.1 mm 7 mps 742 mmHg 80%
    21:00 +3°C° 0 mm 6 mps 742 mmHg 78%
    22:00 +2°C° 0 mm 6 mps 743 mmHg 76%
    23:00 +1°C° 0 mm 6 mps 744 mmHg 75%

    Pasado mañana, 26 Septiembre, Miércoles

    Tiempo Temperatura Precipitaciones Viento Presión Humedad
    00:00 +1°C° 0 mm 6 mps 745 mmHg 74%
    01:00 0°C° 0 mm 5 mps 746 mmHg 73%
    02:00 0°C° 0 mm 5 mps 746 mmHg 72%
    03:00 -1°C° 0 mm 5 mps 747 mmHg 72%
    04:00 -1°C° 0 mm 4 mps 748 mmHg 73%
    05:00 -1°C° 0 mm 4 mps 748 mmHg 74%
    06:00 0°C° 0 mm 4 mps 748 mmHg 71%
    07:00 +1°C° 0 mm 4 mps 749 mmHg 69%
    08:00 +3°C° 0 mm 4 mps 749 mmHg 66%
    09:00 +4°C° 0 mm 4 mps 749 mmHg 64%
    10:00 +6°C° 0 mm 4 mps 749 mmHg 61%
    11:00 +8°C° 0 mm 4 mps 749 mmHg 59%
    12:00 +8°C° 0 mm 4 mps 749 mmHg 60%
    13:00 +10°C° 0 mm 4 mps 748 mmHg 61%
    14:00 +10°C° 0 mm 4 mps 748 mmHg 62%
    15:00 +10°C° 0 mm 4 mps 747 mmHg 65%
    16:00 +8°C° 0 mm 4 mps 746 mmHg 67%
    17:00 +7°C° 0 mm 4 mps 745 mmHg 70%
    18:00 +7°C° 0.3 mm 5 mps 744 mmHg 72%
    19:00 +5°C° 0.3 mm 6 mps 743 mmHg 74%
    20:00 +5°C° 0.3 mm 6 mps 743 mmHg 77%
    21:00 +5°C° 1.1 mm 6 mps 741 mmHg 80%
    22:00 +4°C° 1.1 mm 7 mps 740 mmHg 84%
    23:00 +4°C° 1.1 mm 7 mps 739 mmHg 88%

    27 Septiembre, Jueves

    Tiempo Temperatura Precipitaciones Viento Presión Humedad
    00:00 +4°C° 1.1 mm 7 mps 738 mmHg 88%
    01:00 +4°C° 1.1 mm 6 mps 737 mmHg 89%
    02:00 +4°C° 1.1 mm 6 mps 736 mmHg 90%
    03:00 +5°C° 0.4 mm 6 mps 736 mmHg 89%
    04:00 +6°C° 0.4 mm 5 mps 735 mmHg 89%
    05:00 +6°C° 0.4 mm 4 mps 735 mmHg 89%
    06:00 +6°C° 0 mm 5 mps 735 mmHg 86%
    07:00 +6°C° 0 mm 5 mps 736 mmHg 84%
    08:00 +6°C° 0 mm 5 mps 736 mmHg 81%
    09:00 +7°C° 0.2 mm 6 mps 736 mmHg 78%
    10:00 +7°C° 0.2 mm 6 mps 736 mmHg 75%
    11:00 +8°C° 0.2 mm 6 mps 736 mmHg 73%
    12:00 +8°C° 0.3 mm 6 mps 736 mmHg 71%
    13:00 +8°C° 0.3 mm 6 mps 736 mmHg 70%
    14:00 +8°C° 0.3 mm 6 mps 736 mmHg 69%
    15:00 +7°C° 0.1 mm 5 mps 736 mmHg 72%
    16:00 +7°C° 0.1 mm 5 mps 736 mmHg 76%
    17:00 +6°C° 0.1 mm 4 mps 737 mmHg 79%
    18:00 +5°C° 0 mm 4 mps 737 mmHg 81%
    19:00 +5°C° 0 mm 4 mps 737 mmHg 82%
    20:00 +4°C° 0 mm 4 mps 738 mmHg 84%
    21:00 +4°C° 0 mm 4 mps 738 mmHg 85%
    22:00 +4°C° 0 mm 4 mps 738 mmHg 85%
    23:00 +3°C° 0 mm 4 mps 739 mmHg 86%

    28 Septiembre, Viernes

    Tiempo Temperatura Precipitaciones Viento Presión Humedad
    00:00 +3°C° 0 mm 4 mps 739 mmHg 87%
    01:00 +3°C° 0 mm 4 mps 739 mmHg 88%
    02:00 +3°C° 0 mm 4 mps 739 mmHg 89%
    03:00 +3°C° 0 mm 3 mps 739 mmHg 90%
    04:00 +2°C° 0 mm 3 mps 740 mmHg 90%
    05:00 +2°C° 0 mm 3 mps 740 mmHg 91%
    06:00 +3°C° 0 mm 3 mps 740 mmHg 89%
    07:00 +3°C° 0 mm 3 mps 739 mmHg 87%
    08:00 +4°C° 0 mm 3 mps 739 mmHg 86%
    09:00 +5°C° 0.2 mm 2 mps 739 mmHg 85%
    10:00 +6°C° 0.2 mm 2 mps 738 mmHg 84%
    11:00 +6°C° 0.2 mm 2 mps 738 mmHg 83%
    12:00 +6°C° 1.2 mm 2 mps 737 mmHg 85%
    13:00 +5°C° 1.2 mm 2 mps 736 mmHg 86%
    14:00 +6°C° 1.2 mm 1 mps 735 mmHg 88%
    15:00 +5°C° 0.5 mm 2 mps 735 mmHg 89%
    16:00 +5°C° 0.5 mm 2 mps 735 mmHg 90%
    17:00 +5°C° 0.5 mm 2 mps 735 mmHg 91%
    18:00 +5°C° 0.1 mm 2 mps 736 mmHg 90%
    19:00 +4°C° 0.1 mm 2 mps 737 mmHg 90%
    20:00 +4°C° 0.1 mm 2 mps 737 mmHg 89%
    21:00 +4°C° 0 mm 2 mps 738 mmHg 90%
    22:00 +3°C° 0 mm 2 mps 739 mmHg 90%
    23:00 +2°C° 0 mm 2 mps 740 mmHg 91%

    29 Septiembre, Sábado

    Tiempo Temperatura Precipitaciones Viento Presión Humedad
    00:00 +2°C° 0 mm 2 mps 741 mmHg 91%
    01:00 +1°C° 0 mm 2 mps 741 mmHg 91%
    02:00 +1°C° 0 mm 2 mps 742 mmHg 91%
    03:00 -1°C° 0 mm 2 mps 743 mmHg 91%
    04:00 -1°C° 0 mm 2 mps 743 mmHg 90%
    05:00 -2°C° 0 mm 2 mps 744 mmHg 89%
    06:00 -1°C° 0 mm 3 mps 744 mmHg 85%
    07:00 0°C° 0 mm 3 mps 745 mmHg 80%
    08:00 +1°C° 0 mm 3 mps 746 mmHg 76%
    09:00 +2°C° 0 mm 3 mps 746 mmHg 71%
    10:00 +4°C° 0 mm 4 mps 747 mmHg 66%
    11:00 +5°C° 0 mm 4 mps 748 mmHg 61%
    12:00 +5°C° 0 mm 4 mps 748 mmHg 58%
    13:00 +6°C° 0 mm 4 mps 748 mmHg 56%
    14:00 +6°C° 0 mm 4 mps 748 mmHg 54%
    15:00 +5°C° 0 mm 3 mps 749 mmHg 59%
    16:00 +4°C° 0 mm 3 mps 749 mmHg 63%
    17:00 +4°C° 0 mm 2 mps 750 mmHg 68%
    18:00 +3°C° 0 mm 2 mps 750 mmHg 72%
    19:00 +2°C° 0 mm 2 mps 751 mmHg 76%
    20:00 +1°C° 0 mm 2 mps 752 mmHg 79%
    21:00 +1°C° 0 mm 2 mps 752 mmHg 82%
    22:00 -1°C° 0 mm 2 mps 753 mmHg 85%
    23:00 -1°C° 0 mm 2 mps 753 mmHg 88%
    Mostrar más